TimeCST,TemperatureF,Dew PointF,Humidity,Sea Level PressureIn,VisibilityMPH,Wind Direction,Wind SpeedMPH,Gust SpeedMPH,PrecipitationIn,Events,Conditions,WindDirDegrees,DateUTC
12:15 AM,37.4,28.4,70,30.29,10.0,Calm,Calm,-,N/A,,Clear,0,2013-02-20 06:15:00
12:35 AM,35.6,28.4,75,30.28,10.0,Calm,Calm,-,N/A,,Clear,0,2013-02-20 06:35:00
1:15 AM,35.6,30.2,81,30.27,10.0,Calm,Calm,-,N/A,,Clear,0,2013-02-20 07:15:00
1:35 AM,35.6,28.4,75,30.28,10.0,Calm,Calm,-,N/A,,Clear,0,2013-02-20 07:35:00
2:15 AM,37.4,26.6,65,30.27,10.0,East,3.5,-,N/A,,Clear,90,2013-02-20 08:15:00
2:35 AM,37.4,26.6,65,30.26,10.0,East,4.6,-,N/A,,Clear,100,2013-02-20 08:35:00
2:55 AM,37.4,26.6,65,30.26,10.0,East,3.5,-,N/A,,Clear,80,2013-02-20 08:55:00
3:15 AM,37.4,26.6,65,30.25,10.0,ENE,4.6,-,N/A,,Clear,70,2013-02-20 09:15:00
3:35 AM,37.4,28.4,70,30.24,10.0,ENE,3.5,-,N/A,,Clear,70,2013-02-20 09:35:00
3:55 AM,37.4,26.6,65,30.24,10.0,Calm,Calm,-,N/A,,Clear,0,2013-02-20 09:55:00
4:15 AM,37.4,26.6,65,30.24,10.0,Calm,Calm,-,N/A,,Clear,0,2013-02-20 10:15:00
4:35 AM,37.4,26.6,65,30.23,10.0,ENE,4.6,-,N/A,,Clear,70,2013-02-20 10:35:00
4:55 AM,37.4,26.6,65,30.25,10.0,ESE,3.5,-,N/A,,Clear,120,2013-02-20 10:55:00
5:15 AM,37.4,26.6,65,30.26,10.0,East,6.9,-,N/A,,Clear,80,2013-02-20 11:15:00
5:35 AM,37.4,26.6,65,30.27,10.0,ENE,4.6,-,N/A,,Clear,60,2013-02-20 11:35:00
6:15 AM,37.4,24.8,60,30.26,10.0,ENE,6.9,-,N/A,,Clear,70,2013-02-20 12:15:00
6:35 AM,39.2,24.8,56,30.26,10.0,East,5.8,-,N/A,,Scattered Clouds,90,2013-02-20 12:35:00
6:55 AM,39.2,23.0,52,30.26,10.0,East,6.9,-,N/A,,Scattered Clouds,100,2013-02-20 12:55:00
7:15 AM,39.2,23.0,52,30.26,10.0,East,11.5,16.1,N/A,,Scattered Clouds,80,2013-02-20 13:15:00
7:55 AM,39.2,23.0,52,30.29,10.0,Calm,Calm,-,N/A,,Mostly Cloudy,0,2013-02-20 13:55:00
8:15 AM,37.4,26.6,65,30.29,5.0,ENE,5.8,-,N/A,Snow,Light Snow,70,2013-02-20 14:15:00
8:35 AM,35.6,30.2,81,30.28,1.2,East,8.1,-,N/A,Snow,Light Snow,80,2013-02-20 14:35:00
8:55 AM,33.8,32.0,93,30.29,1.0,ENE,6.9,-,0.01,Snow,Light Snow,70,2013-02-20 14:55:00
9:15 AM,33.8,32.0,93,30.29,0.8,East,6.9,-,0.02,Snow,Light Snow,80,2013-02-20 15:15:00
9:35 AM,32.0,32.0,100,30.29,0.8,ENE,4.6,-,0.05,Snow,Light Snow,70,2013-02-20 15:35:00
9:55 AM,32.0,32.0,100,30.29,0.8,ENE,6.9,-,0.07,Snow,Light Snow,70,2013-02-20 15:55:00
10:15 AM,32.0,32.0,100,30.30,0.2,ENE,6.9,-,0.03,Snow,Heavy Snow,70,2013-02-20 16:15:00
10:35 AM,32.0,32.0,100,30.30,0.2,East,6.9,-,0.07,Snow,Snow,90,2013-02-20 16:35:00
11:15 AM,32.0,32.0,100,30.29,0.2,East,9.2,-,0.03,Snow,Heavy Snow,90,2013-02-20 17:15:00
11:35 AM,32.0,32.0,100,30.28,0.2,East,6.9,-,0.11,Snow,Heavy Snow,90,2013-02-20 17:35:00
11:55 AM,32.0,32.0,100,30.26,1.2,East,10.4,-,0.12,Snow,Light Snow,100,2013-02-20 17:55:00
12:15 PM,33.8,32.0,93,30.25,3.0,East,9.2,-,N/A,Snow,Light Snow,100,2013-02-20 18:15:00
12:35 PM,33.8,32.0,93,30.24,2.0,East,11.5,-,N/A,Snow,Light Snow,100,2013-02-20 18:35:00
12:55 PM,33.8,32.0,93,30.23,3.0,East,9.2,-,N/A,Snow,Light Snow,100,2013-02-20 18:55:00
1:15 PM,33.8,32.0,93,30.22,10.0,East,11.5,16.1,N/A,,Overcast,90,2013-02-20 19:15:00
1:35 PM,33.8,32.0,93,30.20,3.0,East,13.8,-,N/A,Snow,Light Snow,100,2013-02-20 19:35:00
2:15 PM,33.8,32.0,93,30.18,5.0,East,13.8,19.6,N/A,,Overcast,100,2013-02-20 20:15:00
2:55 PM,32.0,30.2,93,30.17,2.5,East,10.4,21.9,N/A,Snow,Light Snow,90,2013-02-20 20:55:00
3:15 PM,32.0,30.2,93,30.16,1.5,East,10.4,18.4,0.02,Snow,Light Snow,90,2013-02-20 21:15:00
3:35 PM,32.0,32.0,100,30.15,4.0,East,8.1,-,0.04,Snow,Light Snow,90,2013-02-20 21:35:00
3:55 PM,32.0,30.2,93,30.15,1.5,East,12.7,20.7,0.07,Snow,Light Snow,90,2013-02-20 21:55:00
4:15 PM,32.0,30.2,93,30.14,3.0,East,13.8,-,0.02,Snow,Light Snow,90,2013-02-20 22:15:00
4:35 PM,32.0,32.0,100,30.14,1.5,East,11.5,18.4,0.07,Snow,Light Snow,90,2013-02-20 22:35:00
5:15 PM,32.0,30.2,93,30.13,5.0,East,15.0,19.6,N/A,,Overcast,100,2013-02-20 23:15:00
5:35 PM,32.0,30.2,93,30.11,4.0,East,17.3,24.2,0.01,,Overcast,100,2013-02-20 23:35:00
5:55 PM,32.0,30.2,93,30.11,5.0,East,11.5,-,0.02,,Overcast,100,2013-02-20 23:55:00
6:15 PM,32.0,32.0,100,30.12,3.0,ESE,10.4,17.3,0.02,,Overcast,110,2013-02-21 00:15:00
6:35 PM,32.0,32.0,100,30.08,4.0,East,15.0,-,0.04,,Overcast,90,2013-02-21 00:35:00
6:55 PM,32.0,32.0,100,30.10,5.0,East,11.5,-,0.07,,Overcast,100,2013-02-21 00:55:00
7:15 PM,32.0,32.0,100,30.09,7.0,East,12.7,16.1,0.02,,Overcast,90,2013-02-21 01:15:00
7:35 PM,32.0,32.0,100,30.10,10.0,ESE,10.4,-,0.02,,Overcast,110,2013-02-21 01:35:00
7:55 PM,32.0,32.0,100,30.10,10.0,East,9.2,-,0.02,,Overcast,90,2013-02-21 01:55:00
8:15 PM,32.0,32.0,100,30.09,10.0,East,9.2,16.1,N/A,,Overcast,90,2013-02-21 02:15:00
8:35 PM,32.0,32.0,100,30.10,7.0,East,9.2,-,N/A,,Overcast,100,2013-02-21 02:35:00
8:55 PM,32.0,32.0,100,30.10,10.0,East,12.7,-,N/A,,Overcast,90,2013-02-21 02:55:00
9:15 PM,32.0,32.0,100,30.08,7.0,East,8.1,-,N/A,,Overcast,100,2013-02-21 03:15:00
9:35 PM,32.0,30.2,93,30.10,7.0,East,9.2,-,0.01,,Overcast,100,2013-02-21 03:35:00
9:55 PM,32.0,30.2,93,30.09,7.0,East,11.5,-,0.02,,Overcast,90,2013-02-21 03:55:00
10:15 PM,32.0,30.2,93,30.08,10.0,East,10.4,-,N/A,Thunderstorm,Overcast,90,2013-02-21 04:15:00
10:35 PM,32.0,30.2,93,30.07,10.0,East,10.4,-,N/A,Snow,Light Snow,90,2013-02-21 04:35:00
10:55 PM,32.0,30.2,93,30.06,10.0,East,11.5,-,N/A,,Overcast,90,2013-02-21 04:55:00
11:15 PM,32.0,30.2,93,30.07,10.0,East,9.2,-,0.01,,Overcast,90,2013-02-21 05:15:00
11:35 PM,32.0,30.2,93,30.06,7.0,East,8.1,-,0.02,,Overcast,90,2013-02-21 05:35:00
11:55 PM,32.0,30.2,93,30.05,7.0,East,11.5,-,0.03,,Overcast,90,2013-02-21 05:55:00